Regional Weather Roundup
Issued by NWS Charleston, SC

Current Version | Previous Version | Text Only | Print | Product List | Glossary Off
Versions: 1 2 3 4 5 6 7 8 9 10 11 12 13 14 15 16 17 18 19 20 21 22 23 24 25 26 27 28 29 30 31 32 33 34 35 36 37 38 39 40 41 42 43 44 45 46 47 48 49 50
000 ASUS42 KCHS 221627 RWRCHS REGIONAL WEATHER ROUNDUP NATIONAL WEATHER SERVICE CHARLESTON SC 1100 AM EST WED NOV 22 2017 NOTE: "FAIR" INDICATES FEW OR NO CLOUDS BELOW 12,000 FEET WITH NO SIGNIFICANT WEATHER AND/OR OBSTRUCTIONS TO VISIBILITY. NOT ALL STATIONS ARE QUALITY CONTROLLED. USE DATA WITH CAUTION... ESPECIALLY DEWPOINT OBSERVATIONS. SCZ027-030-031-034>040-042>050-221700- ...SOUTHEAST SOUTH CAROLINA... CITY SKY/WX TMP DP RH WIND PRES REMARKS N CHARLESTON PTSUNNY 63 58 83 N9 30.03F WATERFRONT PRK NOT AVBL JOHNS ISLAND FAIR 66 59 77 N8 30.02F PINOPOLIS N/A 57 55 94 NW6 29.96R MONCKS CORNER CLOUDY 57 55 94 N7 30.04F SUMMERVILLE CLOUDY 61 55 82 N8 30.05S BEAUFORT MCAS MOSUNNY 64 60 87 N6 30.02F BEAUFORT ARPT FAIR 63 59 88 N7 30.02F HILTON HEAD IS MOSUNNY 61 57 88 N10 30.03S WALTERBORO MOSUNNY 64 57 77 N9 30.03F ALLENDALE CLOUDY 59 57 94 N5 30.04S ...SOUTHERN MIDLANDS AND PEE DEE... CITY SKY/WX TMP DP RH WIND PRES REMARKS GEORGETOWN FAIR 64 59 82 NW7 30.03F KINGSTREE CLOUDY 59 55 88 W3 30.04F ORANGEBURG PTSUNNY 60 55 83 NW3 30.05S BARNWELL N/A 59 59 100 NW7 30.05F AIKEN FAIR 61 54 77 NW5 30.08S MANNING PTSUNNY 61 57 88 MISG 30.04F COLUMBIA PTSUNNY 63 55 75 NW5 30.04F SUMTER PTSUNNY 63 53 68 NW6 30.01F FLORENCE SUNNY 63 54 72 N6 30.03F MYRTLE BEACH PTSUNNY 64 57 77 NW12 30.02F N MYRTLE BEACH PTSUNNY 64 58 80 NW5 30.01S $$ GAZ063-065-086>088-099>101-113>116-118-119-134>141-150-221700- ...SOUTHEAST GEORGIA... CITY SKY/WX TMP DP RH WIND PRES REMARKS SAVANNAH ARPT CLOUDY 62 59 90 NW7 30.04R HUNTER AAF CLOUDY 63 61 95 VRB5 30.01S FORT STEWART PTSUNNY 66 59 77 N6 30.01F STATESBORO CLOUDY 61 58 89 N5 30.04F SYLVANIA CLOUDY 60 60 100 CALM 30.05F FOG CLAXTON CLOUDY 64 61 88 CALM 30.04F ...CSRA...CENTRAL AND FAR SOUTHEAST GEORGIA... CITY SKY/WX TMP DP RH WIND PRES REMARKS THOMSON CLOUDY 60 54 78 CALM 30.10F AUGUSTA-BUSH CLOUDY 59 57 93 NE5 30.05S FOG AUGUSTA-DANIEL CLOUDY 60 55 83 N7 30.06S SWAINSBORO CLOUDY 61 61 100 N7 30.05F VIDALIA CLOUDY 61 61 100 N3 30.05S EASTMAN FAIR 67 52 58 N5 30.07F HAZLEHURST CLOUDY 61 59 94 CALM 30.04S ALMA CLOUDY 64 60 87 VRB6 30.04S WAYCROSS CLOUDY 70 59 68 N8 30.03S JESUP CLOUDY 64 61 88 CALM 30.04S BAXLEY CLOUDY 61 61 100 N5 30.04S BRUNSWICK PTSUNNY 64 59 82 N7 30.05R SAINT SIMONS SUNNY 70 62 76 N13 30.03R $$ SCZ027-028-034-036>038-045-046-048>050-GAZ119-141-221700- ...LAKE AND SUPPLEMENTAL COASTAL OBSERVATIONS... STATION/POSITION TIME TEMP WIND PRES WAVE SWELL AIR SEA DIR/SP/G HT/PER HT/PER/DIR (UTC) (F) (DEG/KT/KT) (MB) (FT/S) (FT/S/D) WINYAH BAY 1545 62 320/ 7 1017.0R LAKE MURRAY 1610 58 360/ 2/ 5 1016.6 ACE BASIN NERRS 1545 65 360/ 3 1017.0S FORT PULASKI 1600 62 61 360/ 7/ 10 1017.0 SAPELO ISLAND 1600 62 350/ 5 1017.0 $$ ANZ835-935-AMZ111-154-330-350-352-354-370-450-454-472-221700- ...C-MAN AND BUOY OBSERVATIONS... STATION/POSITION TIME TEMP WIND PRES WAVE SWELL AIR SEA DIR/SP/G HT/PER HT/PER/DIR (UTC) (F) (DEG/KT/KT) (MB) (FT/S) (FT/S/D) BUOY 41004 1610 66 74 340/ 19/ 23 1014.9 BUOY 41008 1550 62 68 10/ 12/ 14 1016.7R 3/ 8 3/130/ 8 FOLLY BEACH CMAN 1600 63 350/ 9/ 12 1017.0F CAPERS NEARSHORE 1608 61 62 330/ 12/ 16 1016.0F FRIPP NEARSHORE 1608 62 62 340/ 8/ 14 1016.1F STATION/POSITION TIME TEMP WIND PRES WAVE SWELL AIR SEA DIR/SP/G HT/PER HT/PER/DIR (UTC) (F) (DEG/KT/KT) (MB) (FT/S) (FT/S/D) 5E ST. MARYS GA 1600 67 N/A 3/ 8 FRYING PAN BUOY 1610 63 73 320/ 16/ 19 1015.0 BUOY 41025 1610 63 75 300/ 14/ 17 1013.3 CAPE LOOKOUT NC 1600 300/ 8/ 9 1014.4R BUOY 41002 1550 73 76 320/ 14/ 17 1012.9F 8/ 9 7/140/ 9 BUOY 41010 NOT AVBL ST AUGUSTINE FL 1600 66 69 350/ 12/ 13 1016.8R $$

USA.gov is the U.S. government's official web portal to all federal, state and local government web resources and services.